COSMOS 886 DEB, 9960

Orbit data source: Space-Track

COSMOS 886 DEB, 9960 is space debris in LEO originally from a launch on Mon, 27 Dec 1976 UTC launched from the Tyuratam Missile And Space Complex (TTMTR). Debris objects in space refer to the collection of defunct objects orbiting the Earth. Examples of debris include non-operational satellites, rocket bodies, and fragments generated from explosions, collisions, or faulty payload assembly.

Loading next visibility...
Identifier
9960, 1976-126BA
Orbit
LEO
Country
Flag of CISCIS
Related business
Manufacturer
Unknown
Mission
Spacecraft
Bus & Motor
Unknown
Mass
Unknown
Launch date (UTC)
1976-12-27 (49 years ago)
Launch vehicle
Unknown
Launch site
Tyuratam Missile And Space Complex (TTMTR)
Object type
Payload
Rocket body
Debris
Shape & HBR
Unknown shape, 0.1 m
Radar Cross Section
Medium (>0.1 m² and <1 m²)

Expand to show TLE details & history
Last TLE update: 1 day ago

TLE from 1 day ago
0 COSMOS 886 DEB
1 09960U 76126BA  26174.70037547  .00000169  00000-0  17207-3 0  9995
2 09960  65.8676 336.5791 0854446 323.8110  30.7871 12.89741634279073
Epoch: 2026-06-23T16:48Z
TLE epoch observation values (Epoch: 2026-06-23T16:48:32.440Z)
Latitude
-0.00009°
Longitude
172.57572°
Altitude
757.119 km
Speed
7.738 km/s
True Right ascension
22h 26m 18s
True Declination
0° 00' 00"
Sunlit
Object was in daylight at epoch
Visualization orbit readout
Latitude
Unknown
Longitude
Unknown
Altitude
Unknown
Speed
Unknown
Apparent Right ascension
Unknown
Apparent Declination
Unknown
Sunlit
N/A
Visualization observer readout
Local Sidereal Time
06:18:30
Azimuth
Unknown
Elevation
Unknown
Doppler factor
Unknown
Orbital elements
Apogee altitude
1,957.259 km
Perigee altitude
644.959 km
Semi-major axis
7,679.246 km
Eccentricity
0.08544
Inclination
65.8676°
RAAN
336.5791°
Arg. of periapsis
323.811°
True anomaly
36.29414°
Mean anomaly
30.7871°
Eccentric anomaly
33.48834°
Mean motion
3.22526 °/min
Orbital period
111.62 mins
BSTAR
0.00017207
Loading maneuver chart data...
Computing Atmospheric mass density...
Loading historical data...
Loading historical data...
Loading historical data...
Loading historical data...
Loading historical data...
Loading historical data...
Loading historical data...

Documentation

Showing up to 5 results
|